Weather History for Puerto Plata, Dominican Republic

Change the Weather History Date:

Friday, December 7, 2012

  Actual Average Record
Temperature  
Mean Temperature 78 °F -  
Max Temperature 83 °F 81 °F 87 °F (2000)
Min Temperature 73 °F 69 °F 66 °F (2008)
Cooling Degree Days 13    
Growing Degree Days 28 (Base 50)    
Moisture  
Dew Point 72 °F    
Average Humidity 82    
Maximum Humidity 94    
Minimum Humidity 66    
Precipitation  
Precipitation 0.00 in - - ()
Sea Level Pressure  
Sea Level Pressure 29.92 in    
Wind  
Wind Speed 5 mph ()    
Max Wind Speed 17 mph    
Max Gust Speed -    
Visibility 7.0 miles    
Events      
Averages and records for this station are not official NWS values.
T = Trace of Precipitation, MM = Missing Value Source: Averaged Metar Reports

Daily Weather History Graph

Daily Weather History Graph

Search for Another Location

Airport:

Trip Planner

Search our weather history database for the weather conditions in past years. The results will help you decide how hot, cold, wet, or windy it might be!

Date:

Astronomy

Dec. 07, 2012 Rise Set
Actual Time 7:04 AM AST 6:03 PM AST
Civil Twilight 6:40 AM AST 6:27 PM AST
Nautical Twilight 6:13 AM AST 6:54 PM AST
Astronomical Twilight 5:46 AM AST 7:21 PM AST
Moon 1:04 AM AST (12/7) 1:19 PM AST (12/7)
Length of Visible Light 11h 46m
Length of Day
10h 58m
Last Quarter, 39% of the Moon is Illuminated
Dec 7
Last Quarter
Dec 13
New
Dec 20
First Quarter
Dec 28
Full
Jan 4
Last Quarter

Hourly Weather History & Observations

Time (AST) Temp. Heat Index Dew Point Humidity Pressure Visibility Wind Dir Wind Speed Gust Speed Precip Events Conditions
2:00 AM 73.4 °F - 71.6 °F 94% 29.92 in 6.2 mi Calm Calm - N/A   Scattered Clouds
5:00 AM 73.4 °F - 71.6 °F 94% 29.89 in 6.2 mi Calm Calm - N/A   Partly Cloudy
8:00 AM 75 °F - 70 °F 81% 29.92 in 10 mi Calm Calm - -  
8:00 AM 75.2 °F - 69.8 °F 83% 29.92 in 6.2 mi Calm Calm - N/A   Scattered Clouds
9:00 AM 78.8 °F - 71.6 °F 78% 29.92 in 6.2 mi ESE 11.5 mph - N/A   Scattered Clouds
10:00 AM 80.6 °F 86.2 °F 75.2 °F 84% 29.95 in 6.2 mi ESE 8.1 mph - N/A   Mostly Cloudy
11:00 AM 82 °F - 72 °F 66% 29.96 in 10 mi ESE 11.2 mph - -   Partly Cloudy
11:00 AM 82.4 °F 88.2 °F 73.4 °F 74% 29.95 in 6.2 mi ESE 11.5 mph - N/A   Scattered Clouds
12:00 PM 82.4 °F 88.2 °F 73.4 °F 74% 29.95 in 6.2 mi East 11.5 mph - N/A   Mostly Cloudy
1:00 PM 80.6 °F 85.4 °F 73.4 °F 79% 29.92 in 6.2 mi ESE 11.5 mph - N/A   Mostly Cloudy
2:00 PM 81 °F - 74 °F 75% 29.97 in 10 mi East 11.2 mph - -   Mostly Cloudy
2:00 PM 80.6 °F 86.2 °F 75.2 °F 84% 29.89 in 6.2 mi East 11.5 mph - N/A   Mostly Cloudy
3:00 PM 78.8 °F - 73.4 °F 83% 29.89 in 6.2 mi ESE 17.3 mph - N/A   Mostly Cloudy
4:00 PM 78.8 °F - 73.4 °F 83% 29.89 in 6.2 mi ESE 11.5 mph - N/A   Mostly Cloudy
5:00 PM 78 °F - 74 °F 83% 29.89 in 10 mi ESE 11.2 mph - -   Partly Cloudy
5:00 PM 78.8 °F - 73.4 °F 83% 29.89 in 6.2 mi ESE 11.5 mph - N/A   Mostly Cloudy
6:00 PM 77.0 °F - 71.6 °F 83% 29.89 in 6.2 mi ESE 5.8 mph - N/A   Mostly Cloudy
7:00 PM 75.2 °F - 71.6 °F 89% 29.92 in 6.2 mi Calm Calm - N/A   Mostly Cloudy
8:00 PM 75.2 °F - 71.6 °F 89% 29.92 in 6.2 mi Calm Calm - N/A   Mostly Cloudy
11:00 PM 75.2 °F - 69.8 °F 83% 29.95 in 6.2 mi Calm Calm - N/A   Mostly Cloudy